TimeGMT,TemperatureF,Dew PointF,Humidity,Sea Level PressureIn,VisibilityMPH,Wind Direction,Wind SpeedMPH,Gust SpeedMPH,PrecipitationIn,Events,Conditions,WindDirDegrees,DateUTC
12:20 AM,35.6,33.8,93,29.68,6.2,East,8.1,-,N/A,Rain,Light Rain,80,2013-03-20 00:20:00
12:50 AM,35.6,33.8,93,29.68,6.2,East,9.2,-,N/A,Rain,Light Rain,90,2013-03-20 00:50:00
1:20 AM,35.6,32.0,87,29.71,6.2,East,8.1,-,N/A,,Overcast,80,2013-03-20 01:20:00
1:50 AM,35.6,32.0,87,29.71,6.2,East,9.2,-,N/A,,Mostly Cloudy,90,2013-03-20 01:50:00
2:20 AM,35.6,32.0,87,29.71,6.2,East,9.2,-,N/A,,Overcast,80,2013-03-20 02:20:00
2:50 AM,35.6,32.0,87,29.71,6.2,East,12.7,-,N/A,,Mostly Cloudy,90,2013-03-20 02:50:00
3:20 AM,33.8,32.0,93,29.71,6.2,East,9.2,-,N/A,,Mostly Cloudy,90,2013-03-20 03:20:00
3:50 AM,33.8,32.0,93,29.71,6.2,East,9.2,-,N/A,,Mostly Cloudy,80,2013-03-20 03:50:00
4:20 AM,35.6,32.0,87,29.71,6.2,East,10.4,-,N/A,,Mostly Cloudy,100,2013-03-20 04:20:00
4:50 AM,35.6,32.0,87,29.74,6.2,East,8.1,-,N/A,Rain,Rain,100,2013-03-20 04:50:00
5:20 AM,35.6,32.0,87,29.74,6.2,East,8.1,-,N/A,Rain,Rain,90,2013-03-20 05:20:00
5:50 AM,33.8,32.0,93,29.74,6.2,East,6.9,-,N/A,,Mostly Cloudy,80,2013-03-20 05:50:00
6:20 AM,35.6,32.0,87,29.77,6.2,East,8.1,-,N/A,Rain,Rain,100,2013-03-20 06:20:00
6:50 AM,33.8,32.0,93,29.77,6.2,East,10.4,-,N/A,,Overcast,90,2013-03-20 06:50:00
7:20 AM,33.8,32.0,93,29.77,6.2,East,9.2,-,N/A,,Partly Cloudy,90,2013-03-20 07:20:00
7:50 AM,35.6,32.0,87,29.80,6.2,East,10.4,-,N/A,Rain-Snow,Light Snow,90,2013-03-20 07:50:00
8:20 AM,35.6,32.0,87,29.80,6.2,East,10.4,-,N/A,Rain,Rain,90,2013-03-20 08:20:00
8:50 AM,35.6,32.0,87,29.83,6.2,East,9.2,-,N/A,,Mostly Cloudy,90,2013-03-20 08:50:00
9:20 AM,37.4,33.8,87,29.83,6.2,East,9.2,-,N/A,,Mostly Cloudy,90,2013-03-20 09:20:00
9:50 AM,37.4,32.0,81,29.83,6.2,East,12.7,-,N/A,,Mostly Cloudy,90,2013-03-20 09:50:00
10:20 AM,37.4,32.0,81,29.86,6.2,East,11.5,-,N/A,,Mostly Cloudy,80,2013-03-20 10:20:00
10:50 AM,37.4,32.0,81,29.86,4.3,East,13.8,-,N/A,Rain-Snow,Light Rain,100,2013-03-20 10:50:00
11:20 AM,37.4,33.8,87,29.89,6.2,East,12.7,-,N/A,Rain,Light Rain,90,2013-03-20 11:20:00
11:50 AM,37.4,32.0,81,29.89,6.2,East,11.5,-,N/A,Rain-Snow,Light Rain,90,2013-03-20 11:50:00
12:20 PM,37.4,32.0,81,29.89,6.2,East,12.7,-,N/A,,Mostly Cloudy,90,2013-03-20 12:20:00
12:50 PM,37.4,30.2,75,29.89,6.2,East,13.8,-,N/A,,Mostly Cloudy,90,2013-03-20 12:50:00
1:20 PM,39.2,30.2,70,29.92,6.2,East,12.7,-,N/A,,Mostly Cloudy,100,2013-03-20 13:20:00
1:50 PM,37.4,28.4,70,29.92,6.2,ESE,12.7,-,N/A,,Mostly Cloudy,110,2013-03-20 13:50:00
2:20 PM,39.2,28.4,65,29.92,6.2,East,12.7,-,N/A,,Mostly Cloudy,90,2013-03-20 14:20:00
2:50 PM,37.4,28.4,70,29.92,6.2,East,11.5,-,N/A,,Mostly Cloudy,100,2013-03-20 14:50:00
3:20 PM,37.4,28.4,70,29.92,6.2,ENE,12.7,-,N/A,,Mostly Cloudy,70,2013-03-20 15:20:00
3:50 PM,37.4,28.4,70,29.95,6.2,ENE,13.8,-,N/A,Snow,Light Snow Showers,70,2013-03-20 15:50:00
4:20 PM,37.4,30.2,75,29.95,6.2,East,11.5,-,N/A,,Mostly Cloudy,80,2013-03-20 16:20:00
4:50 PM,37.4,30.2,75,29.95,6.2,East,10.4,-,N/A,,Mostly Cloudy,90,2013-03-20 16:50:00
5:20 PM,35.6,30.2,81,29.98,6.2,East,9.2,-,N/A,,Mostly Cloudy,100,2013-03-20 17:20:00
5:50 PM,35.6,30.2,81,29.98,6.2,ESE,8.1,-,N/A,,Scattered Clouds,110,2013-03-20 17:50:00
6:20 PM,35.6,28.4,75,30.01,6.2,East,9.2,-,N/A,,Scattered Clouds,100,2013-03-20 18:20:00
6:50 PM,35.6,28.4,75,30.01,6.2,East,8.1,-,N/A,,Partly Cloudy,100,2013-03-20 18:50:00
7:20 PM,33.8,28.4,81,30.01,6.2,East,5.8,-,N/A,,Partly Cloudy,100,2013-03-20 19:20:00
7:50 PM,33.8,28.4,81,30.01,6.2,East,6.9,-,N/A,,Scattered Clouds,100,2013-03-20 19:50:00
8:20 PM,32.0,26.6,80,30.04,6.2,East,4.6,-,N/A,,Scattered Clouds,80,2013-03-20 20:20:00
8:50 PM,30.2,26.6,86,30.04,6.2,ENE,6.9,-,N/A,,Scattered Clouds,60,2013-03-20 20:50:00
9:20 PM,30.2,28.4,93,30.04,6.2,ENE,5.8,-,N/A,,Partly Cloudy,60,2013-03-20 21:20:00
9:50 PM,32.0,30.2,93,30.04,6.2,East,4.6,-,N/A,,Scattered Clouds,80,2013-03-20 21:50:00
10:20 PM,32.0,28.4,87,30.06,6.2,East,4.6,-,N/A,,Scattered Clouds,100,2013-03-20 22:20:00
10:50 PM,30.2,28.4,93,30.06,-9999.0,Calm,Calm,-,N/A,,Clear,0,2013-03-20 22:50:00
11:20 PM,32.0,28.4,87,30.06,-9999.0,ENE,2.3,-,N/A,,Clear,60,2013-03-20 23:20:00
11:50 PM,32.0,28.4,87,30.06,-9999.0,Calm,Calm,-,N/A,,Clear,0,2013-03-20 23:50:00